Time,TemperatureF,DewpointF,PressureIn,WindDirection,WindDirectionDegrees,WindSpeedMPH,WindSpeedGustMPH,Humidity,HourlyPrecipIn,Conditions,Clouds,dailyrainin,SoftwareType,DateUTC
2013-03-18 00:03:00,40.0,38.0,30.13,North,0,0.0,3.0,91,0.00,,,0.00,,2013-03-18 04:03:00,
2013-03-18 00:13:00,40.0,38.0,30.13,North,0,0.0,3.0,91,0.00,,,0.00,,2013-03-18 04:13:00,
2013-03-18 00:23:00,40.0,38.0,30.13,North,0,0.0,3.0,91,0.00,,,0.00,,2013-03-18 04:23:00,
2013-03-18 00:33:00,40.0,38.0,30.13,NNE,19,1.0,5.0,92,0.00,,,0.00,,2013-03-18 04:33:00,
2013-03-18 00:42:00,40.0,38.0,30.13,NNE,19,1.0,5.0,92,0.00,,,0.00,,2013-03-18 04:42:00,
2013-03-18 00:53:00,40.0,38.0,30.13,North,0,0.0,4.0,92,0.00,,,0.00,,2013-03-18 04:53:00,
2013-03-18 01:03:00,39.0,37.0,30.12,North,0,0.0,3.0,93,0.00,,,0.00,,2013-03-18 05:03:00,
2013-03-18 01:12:00,39.0,37.0,30.12,North,0,0.0,3.0,93,0.00,,,0.00,,2013-03-18 05:12:00,
2013-03-18 01:22:00,39.0,37.0,30.11,North,0,0.0,4.0,93,0.00,,,0.00,,2013-03-18 05:22:00,
2013-03-18 01:32:00,39.0,37.0,30.12,North,0,0.0,2.0,93,0.00,,,0.00,,2013-03-18 05:32:00,
2013-03-18 01:43:00,39.0,37.0,30.12,North,0,0.0,2.0,93,0.00,,,0.00,,2013-03-18 05:43:00,
2013-03-18 01:52:00,39.0,37.0,30.12,North,0,0.0,4.0,94,0.00,,,0.00,,2013-03-18 05:52:00,
2013-03-18 02:02:00,38.0,36.0,30.12,North,0,0.0,5.0,94,0.01,,,0.01,,2013-03-18 06:02:00,
2013-03-18 02:12:00,38.0,36.0,30.12,North,0,0.0,5.0,94,0.01,,,0.01,,2013-03-18 06:12:00,
2013-03-18 02:22:00,38.0,36.0,30.11,North,0,0.0,6.0,94,0.01,,,0.01,,2013-03-18 06:22:00,
2013-03-18 02:32:00,38.0,36.0,30.12,North,0,0.0,6.0,94,0.01,,,0.01,,2013-03-18 06:32:00,
2013-03-18 02:42:00,38.0,36.0,30.12,North,0,0.0,6.0,94,0.01,,,0.01,,2013-03-18 06:42:00,
2013-03-18 02:52:00,38.0,36.0,30.12,North,0,0.0,3.0,94,0.01,,,0.01,,2013-03-18 06:52:00,
2013-03-18 03:02:00,38.0,36.0,30.13,North,0,0.0,4.0,94,0.00,,,0.01,,2013-03-18 07:02:00,
2013-03-18 03:12:00,38.0,36.0,30.13,North,0,0.0,4.0,94,0.00,,,0.01,,2013-03-18 07:12:00,
2013-03-18 03:22:00,38.0,37.0,30.12,North,0,0.0,3.0,95,0.00,,,0.01,,2013-03-18 07:22:00,
2013-03-18 03:33:00,38.0,37.0,30.12,North,0,0.0,4.0,95,0.00,,,0.01,,2013-03-18 07:33:00,
2013-03-18 03:42:00,38.0,37.0,30.12,North,0,0.0,4.0,95,0.00,,,0.01,,2013-03-18 07:42:00,
2013-03-18 03:52:00,38.0,37.0,30.11,North,0,0.0,3.0,95,0.00,,,0.01,,2013-03-18 07:52:00,
2013-03-18 04:02:00,38.0,37.0,30.11,North,0,0.0,5.0,95,0.01,,,0.02,,2013-03-18 08:02:00,
2013-03-18 04:12:00,38.0,37.0,30.11,North,0,0.0,5.0,95,0.01,,,0.02,,2013-03-18 08:12:00,
2013-03-18 04:22:00,38.0,37.0,30.11,North,0,0.0,4.0,95,0.01,,,0.02,,2013-03-18 08:22:00,
2013-03-18 04:32:00,38.0,37.0,30.10,North,0,0.0,10.0,95,0.01,,,0.02,,2013-03-18 08:32:00,
2013-03-18 04:43:00,38.0,37.0,30.10,North,0,0.0,10.0,95,0.01,,,0.02,,2013-03-18 08:43:00,
2013-03-18 04:52:00,38.0,37.0,30.10,North,0,0.0,10.0,95,0.01,,,0.02,,2013-03-18 08:52:00,
2013-03-18 05:02:00,38.0,37.0,30.10,North,0,0.0,5.0,95,0.01,,,0.02,,2013-03-18 09:02:00,
2013-03-18 05:12:00,38.0,37.0,30.10,North,0,0.0,5.0,95,0.01,,,0.02,,2013-03-18 09:12:00,
2013-03-18 05:22:00,38.0,37.0,30.11,North,0,0.0,4.0,95,0.00,,,0.02,,2013-03-18 09:22:00,
2013-03-18 05:33:00,38.0,37.0,30.13,North,0,0.0,3.0,95,0.00,,,0.02,,2013-03-18 09:33:00,
2013-03-18 05:43:00,38.0,37.0,30.13,North,0,0.0,3.0,95,0.00,,,0.02,,2013-03-18 09:43:00,
2013-03-18 05:53:00,38.0,37.0,30.13,North,0,0.0,5.0,95,0.00,,,0.02,,2013-03-18 09:53:00,
2013-03-18 06:03:00,38.0,37.0,30.13,North,0,0.0,5.0,95,0.01,,,0.03,,2013-03-18 10:03:00,
2013-03-18 06:13:00,38.0,37.0,30.13,North,0,0.0,5.0,95,0.01,,,0.03,,2013-03-18 10:13:00,
2013-03-18 06:23:00,38.0,37.0,30.14,NNE,23,1.0,4.0,95,0.01,,,0.03,,2013-03-18 10:23:00,
2013-03-18 06:33:00,37.0,36.0,30.15,North,0,0.0,9.0,95,0.01,,,0.03,,2013-03-18 10:33:00,
2013-03-18 06:42:00,37.0,36.0,30.15,North,0,0.0,9.0,95,0.01,,,0.03,,2013-03-18 10:42:00,
2013-03-18 06:52:00,37.0,36.0,30.15,NNE,18,2.0,5.0,95,0.01,,,0.03,,2013-03-18 10:52:00,
2013-03-18 07:03:00,37.0,36.0,30.14,NNE,18,1.0,5.0,95,0.00,,,0.03,,2013-03-18 11:03:00,
2013-03-18 07:13:00,37.0,36.0,30.14,NNE,18,1.0,5.0,95,0.00,,,0.03,,2013-03-18 11:13:00,
2013-03-18 07:22:00,37.0,36.0,30.14,North,0,0.0,3.0,95,0.00,,,0.03,,2013-03-18 11:22:00,
2013-03-18 07:32:00,37.0,36.0,30.15,North,0,0.0,4.0,95,0.00,,,0.03,,2013-03-18 11:32:00,
2013-03-18 07:42:00,37.0,36.0,30.15,North,0,0.0,4.0,95,0.00,,,0.03,,2013-03-18 11:42:00,
2013-03-18 07:53:00,37.0,36.0,30.15,North,0,0.0,3.0,95,0.00,,,0.03,,2013-03-18 11:53:00,
2013-03-18 08:02:00,37.0,36.0,30.16,North,0,0.0,3.0,96,0.00,,,0.03,,2013-03-18 12:02:00,
2013-03-18 08:12:00,37.0,36.0,30.16,North,0,0.0,3.0,96,0.00,,,0.03,,2013-03-18 12:12:00,
2013-03-18 08:22:00,37.0,36.0,30.15,North,0,0.0,8.0,96,0.00,,,0.03,,2013-03-18 12:22:00,
2013-03-18 08:32:00,37.0,36.0,30.15,North,0,0.0,6.0,96,0.00,,,0.03,,2013-03-18 12:32:00,
2013-03-18 08:43:00,37.0,36.0,30.15,North,0,0.0,6.0,96,0.00,,,0.03,,2013-03-18 12:43:00,
2013-03-18 08:52:00,37.0,36.0,30.15,North,0,0.0,5.0,96,0.00,,,0.03,,2013-03-18 12:52:00,
2013-03-18 09:03:00,37.0,36.0,30.16,NNE,26,2.0,5.0,96,0.00,,,0.03,,2013-03-18 13:03:00,
2013-03-18 09:12:00,37.0,36.0,30.16,NNE,26,2.0,5.0,96,0.00,,,0.03,,2013-03-18 13:12:00,
2013-03-18 09:22:00,37.0,36.0,30.16,NNE,26,2.0,5.0,96,0.00,,,0.03,,2013-03-18 13:22:00,
2013-03-18 09:33:00,37.0,36.0,30.16,North,0,0.0,5.0,96,0.00,,,0.03,,2013-03-18 13:33:00,
2013-03-18 09:42:00,37.0,36.0,30.16,North,0,0.0,5.0,96,0.00,,,0.03,,2013-03-18 13:42:00,
2013-03-18 09:52:00,37.0,36.0,30.16,North,0,0.0,7.0,96,0.00,,,0.03,,2013-03-18 13:52:00,
2013-03-18 10:02:00,37.0,36.0,30.14,North,0,0.0,2.0,96,0.00,,,0.03,,2013-03-18 14:02:00,
2013-03-18 10:12:00,37.0,36.0,30.14,North,0,0.0,2.0,96,0.00,,,0.03,,2013-03-18 14:12:00,
2013-03-18 10:22:00,37.0,36.0,30.14,North,8,2.0,8.0,96,0.00,,,0.03,,2013-03-18 14:22:00,
2013-03-18 10:32:00,37.0,36.0,30.14,North,0,0.0,5.0,96,0.00,,,0.03,,2013-03-18 14:32:00,
2013-03-18 10:42:00,37.0,36.0,30.14,North,0,0.0,5.0,96,0.00,,,0.03,,2013-03-18 14:42:00,
2013-03-18 10:52:00,37.0,36.0,30.13,North,0,0.0,2.0,96,0.00,,,0.03,,2013-03-18 14:52:00,
2013-03-18 11:02:00,37.0,36.0,30.13,North,0,0.0,5.0,96,0.00,,,0.03,,2013-03-18 15:02:00,
2013-03-18 11:12:00,37.0,36.0,30.13,North,0,0.0,5.0,96,0.00,,,0.03,,2013-03-18 15:12:00,
2013-03-18 11:22:00,37.0,36.0,30.12,North,357,1.0,4.0,96,0.00,,,0.03,,2013-03-18 15:22:00,
2013-03-18 11:33:00,38.0,37.0,30.11,North,0,0.0,6.0,96,0.00,,,0.03,,2013-03-18 15:33:00,
2013-03-18 11:43:00,38.0,37.0,30.11,North,0,0.0,6.0,96,0.00,,,0.03,,2013-03-18 15:43:00,
2013-03-18 11:52:00,38.0,37.0,30.12,NNE,21,1.0,5.0,96,0.00,,,0.03,,2013-03-18 15:52:00,
2013-03-18 12:03:00,38.0,37.0,30.12,NNE,21,1.0,5.0,96,0.00,,,0.03,,2013-03-18 16:03:00,
2013-03-18 12:12:00,38.0,37.0,30.12,NNE,21,1.0,5.0,96,0.00,,,0.03,,2013-03-18 16:12:00,
2013-03-18 12:23:00,38.0,37.0,30.11,North,0,0.0,3.0,96,0.00,,,0.03,,2013-03-18 16:23:00,
2013-03-18 12:32:00,38.0,37.0,30.11,NNE,20,1.0,4.0,96,0.00,,,0.03,,2013-03-18 16:32:00,
2013-03-18 12:42:00,38.0,37.0,30.11,NNE,20,1.0,4.0,96,0.00,,,0.03,,2013-03-18 16:42:00,
2013-03-18 12:52:00,38.0,37.0,30.10,North,0,0.0,3.0,96,0.00,,,0.03,,2013-03-18 16:52:00,
2013-03-18 13:03:00,38.0,37.0,30.10,NNW,348,1.0,4.0,96,0.00,,,0.03,,2013-03-18 17:03:00,
2013-03-18 13:12:00,38.0,37.0,30.10,NNW,348,1.0,4.0,96,0.00,,,0.03,,2013-03-18 17:12:00,
2013-03-18 13:22:00,39.0,38.0,30.09,North,0,0.0,4.0,96,0.00,,,0.03,,2013-03-18 17:22:00,
2013-03-18 13:32:00,39.0,38.0,30.09,North,0,0.0,1.0,96,0.00,,,0.03,,2013-03-18 17:32:00,
2013-03-18 13:42:00,39.0,38.0,30.09,North,0,0.0,1.0,96,0.00,,,0.03,,2013-03-18 17:42:00,
2013-03-18 13:52:00,39.0,38.0,30.09,North,0,0.0,0.0,96,0.00,,,0.03,,2013-03-18 17:52:00,
2013-03-18 14:02:00,39.0,38.0,30.07,North,0,0.0,2.0,96,0.00,,,0.03,,2013-03-18 18:02:00,
2013-03-18 14:12:00,39.0,38.0,30.07,North,0,0.0,2.0,96,0.00,,,0.03,,2013-03-18 18:12:00,
2013-03-18 14:22:00,39.0,38.0,30.06,North,0,0.0,4.0,96,0.00,,,0.03,,2013-03-18 18:22:00,
2013-03-18 14:32:00,40.0,39.0,30.04,North,0,0.0,3.0,96,0.00,,,0.03,,2013-03-18 18:32:00,
2013-03-18 14:42:00,40.0,39.0,30.04,North,0,0.0,3.0,96,0.00,,,0.03,,2013-03-18 18:42:00,
2013-03-18 14:52:00,40.0,39.0,30.03,North,0,0.0,2.0,96,0.00,,,0.03,,2013-03-18 18:52:00,
2013-03-18 15:03:00,40.0,39.0,30.02,North,0,0.0,3.0,96,0.00,,,0.03,,2013-03-18 19:03:00,
2013-03-18 15:12:00,40.0,39.0,30.02,North,0,0.0,3.0,96,0.00,,,0.03,,2013-03-18 19:12:00,
2013-03-18 15:22:00,40.0,39.0,30.01,North,0,0.0,1.0,96,0.00,,,0.03,,2013-03-18 19:22:00,
2013-03-18 15:33:00,40.0,39.0,30.01,North,0,0.0,2.0,96,0.00,,,0.03,,2013-03-18 19:33:00,
2013-03-18 15:42:00,40.0,39.0,30.01,North,0,0.0,2.0,96,0.00,,,0.03,,2013-03-18 19:42:00,
2013-03-18 15:52:00,40.0,39.0,30.00,North,0,0.0,0.0,96,0.00,,,0.03,,2013-03-18 19:52:00,
2013-03-18 16:03:00,40.0,39.0,29.99,North,0,0.0,1.0,96,0.00,,,0.03,,2013-03-18 20:03:00,
2013-03-18 16:12:00,40.0,39.0,29.99,North,0,0.0,1.0,96,0.00,,,0.03,,2013-03-18 20:12:00,
2013-03-18 16:23:00,40.0,39.0,29.99,North,0,0.0,0.0,96,0.00,,,0.03,,2013-03-18 20:23:00,
2013-03-18 16:33:00,40.0,39.0,29.96,North,0,0.0,2.0,96,0.00,,,0.03,,2013-03-18 20:33:00,
2013-03-18 16:42:00,40.0,39.0,29.96,North,0,0.0,2.0,96,0.00,,,0.03,,2013-03-18 20:42:00,
2013-03-18 16:52:00,40.0,39.0,29.97,North,0,0.0,2.0,96,0.00,,,0.03,,2013-03-18 20:52:00,
2013-03-18 17:02:00,41.0,40.0,29.97,North,0,0.0,0.0,96,0.00,,,0.03,,2013-03-18 21:02:00,
2013-03-18 17:12:00,41.0,40.0,29.97,North,0,0.0,0.0,96,0.00,,,0.03,,2013-03-18 21:12:00,
2013-03-18 17:22:00,41.0,40.0,29.97,North,0,0.0,4.0,96,0.00,,,0.03,,2013-03-18 21:22:00,
2013-03-18 17:33:00,41.0,40.0,29.97,North,0,0.0,0.0,96,0.00,,,0.03,,2013-03-18 21:33:00,
2013-03-18 17:42:00,41.0,40.0,29.97,North,0,0.0,0.0,96,0.00,,,0.03,,2013-03-18 21:42:00,
2013-03-18 17:52:00,41.0,40.0,29.97,North,0,0.0,1.0,96,0.00,,,0.03,,2013-03-18 21:52:00,
2013-03-18 18:03:00,40.0,39.0,29.98,North,0,0.0,1.0,96,0.00,,,0.03,,2013-03-18 22:03:00,
2013-03-18 18:13:00,40.0,39.0,29.98,North,0,0.0,1.0,96,0.00,,,0.03,,2013-03-18 22:13:00,
2013-03-18 18:23:00,40.0,39.0,29.97,North,0,0.0,0.0,96,0.00,,,0.03,,2013-03-18 22:23:00,
2013-03-18 18:33:00,41.0,40.0,29.96,North,0,0.0,0.0,96,0.00,,,0.03,,2013-03-18 22:33:00,
2013-03-18 18:42:00,41.0,40.0,29.96,North,0,0.0,0.0,96,0.00,,,0.03,,2013-03-18 22:42:00,
2013-03-18 18:53:00,40.0,39.0,29.96,North,0,0.0,1.0,96,0.00,,,0.03,,2013-03-18 22:53:00,
2013-03-18 19:03:00,40.0,39.0,29.96,North,0,0.0,0.0,96,0.00,,,0.03,,2013-03-18 23:03:00,
2013-03-18 19:12:00,40.0,39.0,29.96,North,0,0.0,0.0,96,0.00,,,0.03,,2013-03-18 23:12:00,
2013-03-18 19:23:00,40.0,39.0,29.96,North,0,0.0,1.0,96,0.00,,,0.03,,2013-03-18 23:23:00,
2013-03-18 19:33:00,40.0,39.0,29.95,North,0,0.0,1.0,96,0.00,,,0.03,,2013-03-18 23:33:00,
2013-03-18 19:42:00,40.0,39.0,29.95,North,0,0.0,1.0,96,0.00,,,0.03,,2013-03-18 23:42:00,
2013-03-18 19:52:00,40.0,39.0,29.95,North,0,0.0,5.0,96,0.00,,,0.03,,2013-03-18 23:52:00,
2013-03-18 20:03:00,40.0,39.0,29.93,North,0,0.0,3.0,96,0.01,,,0.04,,2013-03-19 00:03:00,
2013-03-18 20:12:00,40.0,39.0,29.93,North,0,0.0,3.0,96,0.01,,,0.04,,2013-03-19 00:12:00,
2013-03-18 20:22:00,40.0,39.0,29.95,North,0,0.0,3.0,96,0.01,,,0.04,,2013-03-19 00:22:00,
2013-03-18 20:32:00,40.0,39.0,29.96,North,0,0.0,3.0,96,0.01,,,0.04,,2013-03-19 00:32:00,
2013-03-18 20:42:00,40.0,39.0,29.96,North,0,0.0,3.0,96,0.01,,,0.04,,2013-03-19 00:42:00,
2013-03-18 20:52:00,40.0,39.0,30.00,NNE,28,2.0,3.0,96,0.01,,,0.04,,2013-03-19 00:52:00,
2013-03-18 21:02:00,40.0,39.0,29.95,North,0,0.0,3.0,96,0.06,,,0.10,,2013-03-19 01:02:00,
2013-03-18 21:12:00,40.0,39.0,29.95,North,0,0.0,3.0,96,0.06,,,0.10,,2013-03-19 01:12:00,
2013-03-18 21:22:00,40.0,39.0,29.94,North,0,0.0,1.0,96,0.11,,,0.15,,2013-03-19 01:22:00,
2013-03-18 21:33:00,40.0,39.0,29.96,North,0,0.0,0.0,96,0.17,,,0.21,,2013-03-19 01:33:00,
2013-03-18 21:42:00,40.0,39.0,29.96,North,0,0.0,0.0,96,0.17,,,0.21,,2013-03-19 01:42:00,
2013-03-18 21:52:00,40.0,39.0,29.96,North,0,0.0,0.0,96,0.20,,,0.24,,2013-03-19 01:52:00,
2013-03-18 22:03:00,39.0,38.0,29.95,North,0,0.0,2.0,96,0.14,,,0.24,,2013-03-19 02:03:00,
2013-03-18 22:12:00,39.0,38.0,29.95,North,0,0.0,2.0,96,0.14,,,0.24,,2013-03-19 02:12:00,
2013-03-18 22:22:00,39.0,38.0,29.95,North,0,0.0,1.0,96,0.09,,,0.24,,2013-03-19 02:22:00,
2013-03-18 22:33:00,39.0,38.0,29.94,North,0,0.0,0.0,96,0.04,,,0.25,,2013-03-19 02:33:00,
2013-03-18 22:42:00,39.0,38.0,29.94,North,0,0.0,0.0,96,0.04,,,0.25,,2013-03-19 02:42:00,
2013-03-18 22:52:00,39.0,38.0,29.95,North,0,0.0,0.0,96,0.05,,,0.29,,2013-03-19 02:52:00,
2013-03-18 23:02:00,39.0,38.0,29.93,North,0,0.0,2.0,96,0.14,,,0.38,,2013-03-19 03:02:00,
2013-03-18 23:12:00,39.0,38.0,29.93,North,0,0.0,2.0,96,0.14,,,0.38,,2013-03-19 03:12:00,
2013-03-18 23:22:00,38.0,37.0,29.89,North,0,0.0,5.0,96,0.18,,,0.42,,2013-03-19 03:22:00,
2013-03-18 23:33:00,38.0,37.0,29.85,ENE,60,1.0,7.0,96,0.17,,,0.42,,2013-03-19 03:33:00,
2013-03-18 23:43:00,38.0,37.0,29.85,ENE,60,1.0,7.0,96,0.17,,,0.42,,2013-03-19 03:43:00,
2013-03-18 23:54:00,38.0,37.0,29.83,North,0,0.0,2.0,97,0.13,,,0.42,,2013-03-19 03:54:00,